Location: ???????
(55.4362°N, 38.1183°E)
Time: 03:41:18
(UTC+00:00)

SL-14 R/B - Pass Details

Date: 17 June 2021
Orbit: 517 x 554 km, 82.4° (Epoch: 26 July)

Event Time Altitude Azimuth Distance (km) Brightness Sun altitude
Exits shadow 19:32:26 - 187° (S) 2,261 5.9 -7.4°
Reaches altitude 10° 19:33:29 10° 187° (S) 1,835 5.5 -7.4°
Maximum altitude 19:37:31 81° 101° (E) 567 3.3 -7.7°
Drops below altitude 10° 19:41:35 10° 14° (NNE) 1,839 6.8 -7.9°
Sets 19:43:45 0° 13° (NNE) 2,732 7.8 -8.0°
